Location: Ayer Observatory
(42.2600°N, 71.0700°W)
Time: 04:24:18
(UTC-04:00)

FO-29 - Pass Details

Date: 24 August 2019
Orbit: 800 x 1321 km, 98.6° (Epoch: 16 September)

Event Time Altitude Azimuth Distance (km) Brightness Sun altitude
Exits shadow 03:55:14 45° 230° (SW) 1,118 9.3 -21.4°
Maximum altitude 03:56:06 50° 260° (W) 1,047 9.3 -21.2°
Drops below altitude 10° 04:01:09 10° 336° (NNW) 2,388 11.7 -20.5°
Sets 04:03:31 0° 341° (NNW) 3,318 12.5 -20.2°
